Time,TemperatureF,DewpointF,PressureIn,WindDirection,WindDirectionDegrees,WindSpeedMPH,WindSpeedGustMPH,Humidity,HourlyPrecipIn,Conditions,Clouds,dailyrainin,SoftwareType,DateUTC
2013-02-22 00:00:00,24.7,21.0,29.84,North,360,5.1,11.0,77,0.00,,,0.00,Rainwise IP-100,2013-02-22 05:00:00,
2013-02-22 00:05:00,24.9,21.0,29.85,North,360,6.1,13.8,76,0.00,,,0.00,Rainwise IP-100,2013-02-22 05:05:00,
2013-02-22 00:10:00,25.1,21.0,29.86,NNE,22,7.7,15.2,76,0.00,,,0.00,Rainwise IP-100,2013-02-22 05:10:00,
2013-02-22 00:15:00,25.2,21.0,29.86,NE,45,5.1,11.4,76,0.00,,,0.00,Rainwise IP-100,2013-02-22 05:15:00,
2013-02-22 00:20:00,25.2,21.0,29.87,North,360,6.5,9.1,76,0.00,,,0.00,Rainwise IP-100,2013-02-22 05:20:00,
2013-02-22 00:25:00,25.2,21.0,29.87,North,360,6.1,7.5,76,0.00,,,0.00,Rainwise IP-100,2013-02-22 05:25:00,
2013-02-22 00:30:00,25.2,21.0,29.87,NNE,22,4.9,8.9,76,0.00,,,0.00,Rainwise IP-100,2013-02-22 05:30:00,
2013-02-22 00:35:00,25.3,21.0,29.87,NNW,337,5.8,7.7,76,0.00,,,0.00,Rainwise IP-100,2013-02-22 05:35:00,
2013-02-22 00:40:00,25.4,21.0,29.87,NNW,337,6.8,9.1,76,0.00,,,0.00,Rainwise IP-100,2013-02-22 05:40:00,
2013-02-22 00:45:00,25.4,21.0,29.87,NNW,337,5.1,7.5,76,0.00,,,0.00,Rainwise IP-100,2013-02-22 05:45:00,
2013-02-22 00:50:00,25.4,21.0,29.88,NNE,22,4.0,9.6,77,0.00,,,0.00,Rainwise IP-100,2013-02-22 05:50:00,
2013-02-22 00:55:00,25.5,21.0,29.88,NNE,22,1.2,7.9,77,0.00,,,0.00,Rainwise IP-100,2013-02-22 05:55:00,
2013-02-22 01:00:00,25.6,21.0,29.87,NNE,22,3.0,10.3,76,0.00,,,0.00,Rainwise IP-100,2013-02-22 06:00:00,
2013-02-22 01:06:00,25.7,21.0,29.88,NNE,22,4.7,12.1,76,0.00,,,0.00,Rainwise IP-100,2013-02-22 06:06:00,
2013-02-22 01:11:00,25.7,21.0,29.87,NNE,22,9.3,9.3,76,0.00,,,0.00,Rainwise IP-100,2013-02-22 06:11:00,
2013-02-22 01:12:00,25.7,21.0,29.88,NNW,337,6.3,12.6,76,0.00,,,0.00,Rainwise IP-100,2013-02-22 06:12:00,
2013-02-22 01:17:00,25.8,21.0,29.87,NNE,22,5.6,8.9,76,0.00,,,0.00,Rainwise IP-100,2013-02-22 06:17:00,
2013-02-22 01:22:00,25.8,21.0,29.87,NNE,22,0.0,10.3,76,0.00,,,0.00,Rainwise IP-100,2013-02-22 06:22:00,
2013-02-22 01:27:00,25.9,21.0,29.86,North,360,4.7,8.4,76,0.00,,,0.00,Rainwise IP-100,2013-02-22 06:27:00,
2013-02-22 01:32:00,25.9,21.0,29.86,North,360,8.2,10.7,77,0.00,,,0.00,Rainwise IP-100,2013-02-22 06:32:00,
2013-02-22 01:38:00,25.9,21.0,29.86,NNW,337,3.5,9.1,77,0.00,,,0.00,Rainwise IP-100,2013-02-22 06:38:00,
2013-02-22 01:43:00,25.9,21.0,29.86,NE,45,3.3,9.8,77,0.00,,,0.00,Rainwise IP-100,2013-02-22 06:43:00,
2013-02-22 01:48:00,26.0,21.0,29.86,NNE,22,6.3,7.9,77,0.00,,,0.00,Rainwise IP-100,2013-02-22 06:48:00,
2013-02-22 01:53:00,26.0,21.0,29.86,North,360,7.5,12.6,77,0.00,,,0.00,Rainwise IP-100,2013-02-22 06:53:00,
2013-02-22 01:58:00,26.2,21.0,29.86,NNW,337,8.4,10.5,76,0.00,,,0.00,Rainwise IP-100,2013-02-22 06:58:00,
2013-02-22 02:03:00,26.3,21.0,29.86,NNW,337,9.6,11.0,76,0.00,,,0.00,Rainwise IP-100,2013-02-22 07:03:00,
2013-02-22 02:08:00,26.3,21.0,29.85,North,360,4.4,12.1,76,0.00,,,0.00,Rainwise IP-100,2013-02-22 07:08:00,
2013-02-22 02:13:00,26.4,21.0,29.85,NNW,337,7.9,9.6,76,0.00,,,0.00,Rainwise IP-100,2013-02-22 07:13:00,
2013-02-22 02:16:00,26.5,21.0,29.85,NNW,337,4.7,11.4,76,0.00,,,0.00,Rainwise IP-100,2013-02-22 07:16:00,
2013-02-22 02:21:00,26.5,21.0,29.86,NNW,337,5.1,9.3,76,0.00,,,0.00,Rainwise IP-100,2013-02-22 07:21:00,
2013-02-22 02:26:00,26.6,21.0,29.86,NNW,337,6.1,10.3,76,0.00,,,0.00,Rainwise IP-100,2013-02-22 07:26:00,
2013-02-22 02:31:00,26.6,21.0,29.86,NNE,22,4.9,11.4,75,0.00,,,0.00,Rainwise IP-100,2013-02-22 07:31:00,
2013-02-22 02:36:00,26.7,21.0,29.86,NNE,22,7.7,9.1,75,0.00,,,0.00,Rainwise IP-100,2013-02-22 07:36:00,
2013-02-22 02:41:00,26.7,21.0,29.86,North,360,5.4,8.4,75,0.00,,,0.00,Rainwise IP-100,2013-02-22 07:41:00,
2013-02-22 02:46:00,26.8,21.0,29.85,NE,45,1.4,10.5,75,0.00,,,0.00,Rainwise IP-100,2013-02-22 07:46:00,
2013-02-22 02:52:00,26.8,21.0,29.86,NNW,337,4.0,7.0,75,0.00,,,0.00,Rainwise IP-100,2013-02-22 07:52:00,
2013-02-22 02:57:00,26.7,21.0,29.86,NNW,337,5.1,7.0,75,0.00,,,0.00,Rainwise IP-100,2013-02-22 07:57:00,
2013-02-22 03:02:00,26.7,21.0,29.86,North,360,3.5,6.3,75,0.00,,,0.00,Rainwise IP-100,2013-02-22 08:02:00,
2013-02-22 03:07:00,26.8,21.0,29.86,North,360,4.4,7.7,75,0.00,,,0.00,Rainwise IP-100,2013-02-22 08:07:00,
2013-02-22 03:12:00,26.8,21.0,29.87,North,360,3.3,7.9,75,0.00,,,0.00,Rainwise IP-100,2013-02-22 08:12:00,
2013-02-22 03:17:00,26.8,21.0,29.86,NNW,337,4.0,5.4,75,0.00,,,0.00,Rainwise IP-100,2013-02-22 08:17:00,
2013-02-22 03:22:00,26.7,21.0,29.86,NNE,22,2.8,4.4,75,0.00,,,0.00,Rainwise IP-100,2013-02-22 08:22:00,
2013-02-22 03:27:00,26.7,21.0,29.87,NNE,22,0.0,4.2,75,0.00,,,0.00,Rainwise IP-100,2013-02-22 08:27:00,
2013-02-22 03:32:00,26.7,21.0,29.86,NNE,22,1.4,2.8,75,0.00,,,0.00,Rainwise IP-100,2013-02-22 08:32:00,
2013-02-22 03:37:00,26.5,21.0,29.86,NNE,22,3.0,3.0,76,0.00,,,0.00,Rainwise IP-100,2013-02-22 08:37:00,
2013-02-22 03:42:00,26.4,21.0,29.86,NE,45,2.8,5.4,76,0.00,,,0.00,Rainwise IP-100,2013-02-22 08:42:00,
2013-02-22 03:47:00,26.3,21.0,29.86,North,360,1.2,4.2,76,0.00,,,0.00,Rainwise IP-100,2013-02-22 08:47:00,
2013-02-22 03:52:00,26.2,21.0,29.85,NNE,22,0.0,4.2,77,0.00,,,0.00,Rainwise IP-100,2013-02-22 08:52:00,
2013-02-22 03:57:00,26.1,21.0,29.86,NNE,22,2.3,3.3,77,0.00,,,0.00,Rainwise IP-100,2013-02-22 08:57:00,
2013-02-22 04:02:00,26.1,21.0,29.86,NNE,22,1.2,2.8,77,0.00,,,0.00,Rainwise IP-100,2013-02-22 09:02:00,
2013-02-22 04:08:00,26.0,21.0,29.86,ENE,67,2.8,3.5,77,0.00,,,0.00,Rainwise IP-100,2013-02-22 09:08:00,
2013-02-22 04:13:00,25.8,21.0,29.86,NE,45,2.1,5.4,78,0.00,,,0.00,Rainwise IP-100,2013-02-22 09:13:00,
2013-02-22 04:18:00,25.7,21.0,29.86,NE,45,4.4,6.1,78,0.00,,,0.00,Rainwise IP-100,2013-02-22 09:18:00,
2013-02-22 04:23:00,25.7,21.0,29.85,NNE,22,4.7,5.1,78,0.00,,,0.00,Rainwise IP-100,2013-02-22 09:23:00,
2013-02-22 04:28:00,25.7,21.0,29.86,NNE,22,6.1,13.5,78,0.00,,,0.00,Rainwise IP-100,2013-02-22 09:28:00,
2013-02-22 04:33:00,26.0,21.0,29.86,NNE,22,4.2,7.2,78,0.00,,,0.00,Rainwise IP-100,2013-02-22 09:33:00,
2013-02-22 04:38:00,26.3,21.0,29.86,NE,45,4.0,8.6,77,0.00,,,0.00,Rainwise IP-100,2013-02-22 09:38:00,
2013-02-22 04:43:00,26.4,21.0,29.86,NE,45,3.3,7.0,77,0.00,,,0.00,Rainwise IP-100,2013-02-22 09:43:00,
2013-02-22 04:48:00,26.2,21.0,29.86,NNE,22,1.4,4.0,77,0.00,,,0.00,Rainwise IP-100,2013-02-22 09:48:00,
2013-02-22 04:53:00,26.2,21.0,29.86,NNW,337,0.0,3.3,77,0.00,,,0.00,Rainwise IP-100,2013-02-22 09:53:00,
2013-02-22 04:58:00,26.4,21.0,29.86,NNE,22,1.9,7.5,77,0.00,,,0.00,Rainwise IP-100,2013-02-22 09:58:00,
2013-02-22 05:03:00,26.5,23.0,29.87,NNE,22,2.3,7.5,77,0.00,,,0.00,Rainwise IP-100,2013-02-22 10:03:00,
2013-02-22 05:08:00,26.8,21.0,29.87,ENE,67,0.0,13.8,76,0.00,,,0.00,Rainwise IP-100,2013-02-22 10:08:00,
2013-02-22 05:13:00,27.2,21.0,29.87,North,360,6.8,11.2,75,0.00,,,0.00,Rainwise IP-100,2013-02-22 10:13:00,
2013-02-22 05:18:00,27.2,21.0,29.87,NNW,337,6.8,12.6,75,0.00,,,0.00,Rainwise IP-100,2013-02-22 10:18:00,
2013-02-22 05:23:00,27.3,21.0,29.87,ENE,67,2.3,9.8,74,0.00,,,0.00,Rainwise IP-100,2013-02-22 10:23:00,
2013-02-22 05:28:00,27.3,21.0,29.87,NNE,22,5.4,10.5,74,0.00,,,0.00,Rainwise IP-100,2013-02-22 10:28:00,
2013-02-22 05:33:00,27.1,21.0,29.88,NNE,22,2.1,7.7,74,0.00,,,0.00,Rainwise IP-100,2013-02-22 10:33:00,
2013-02-22 05:38:00,26.9,21.0,29.88,North,360,2.3,7.2,75,0.00,,,0.00,Rainwise IP-100,2013-02-22 10:38:00,
2013-02-22 05:43:00,26.8,21.0,29.88,NE,45,2.3,4.7,75,0.00,,,0.00,Rainwise IP-100,2013-02-22 10:43:00,
2013-02-22 05:48:00,26.6,21.0,29.89,NNE,22,1.4,4.9,75,0.00,,,0.00,Rainwise IP-100,2013-02-22 10:48:00,
2013-02-22 05:53:00,26.6,21.0,29.90,NNW,337,1.2,12.8,75,0.00,,,0.00,Rainwise IP-100,2013-02-22 10:53:00,
2013-02-22 05:58:00,26.8,21.0,29.90,NNE,22,2.8,5.8,75,0.00,,,0.00,Rainwise IP-100,2013-02-22 10:58:00,
2013-02-22 06:03:00,26.6,21.0,29.91,ENE,67,2.8,6.8,75,0.00,,,0.00,Rainwise IP-100,2013-02-22 11:03:00,
2013-02-22 06:09:00,26.4,21.0,29.91,NNW,337,7.0,11.4,75,0.00,,,0.00,Rainwise IP-100,2013-02-22 11:09:00,
2013-02-22 06:14:00,26.5,21.0,29.91,NNW,337,9.6,11.0,75,0.00,,,0.00,Rainwise IP-100,2013-02-22 11:14:00,
2013-02-22 06:19:00,26.6,21.0,29.91,WNW,292,3.3,14.5,75,0.00,,,0.00,Rainwise IP-100,2013-02-22 11:19:00,
2013-02-22 06:24:00,26.5,21.0,29.92,NNE,22,7.2,7.9,75,0.00,,,0.00,Rainwise IP-100,2013-02-22 11:24:00,
2013-02-22 06:29:00,26.5,21.0,29.92,NNE,22,0.0,9.3,75,0.00,,,0.00,Rainwise IP-100,2013-02-22 11:29:00,
2013-02-22 06:34:00,26.3,21.0,29.93,NNW,337,5.4,7.2,75,0.00,,,0.00,Rainwise IP-100,2013-02-22 11:34:00,
2013-02-22 06:39:00,26.1,21.0,29.93,NNW,337,4.2,6.5,75,0.00,,,0.00,Rainwise IP-100,2013-02-22 11:39:00,
2013-02-22 06:44:00,25.8,21.0,29.93,NNW,337,0.0,4.4,75,0.00,,,0.00,Rainwise IP-100,2013-02-22 11:44:00,
2013-02-22 06:49:00,25.5,21.0,29.94,NW,315,0.0,5.8,75,0.00,,,0.00,Rainwise IP-100,2013-02-22 11:49:00,
2013-02-22 06:54:00,25.4,21.0,29.94,NE,45,3.0,4.2,76,0.00,,,0.00,Rainwise IP-100,2013-02-22 11:54:00,
2013-02-22 06:59:00,25.3,21.0,29.94,North,360,5.1,5.4,77,0.00,,,0.00,Rainwise IP-100,2013-02-22 11:59:00,
2013-02-22 07:04:00,25.3,21.0,29.95,North,360,4.0,5.4,77,0.00,,,0.00,Rainwise IP-100,2013-02-22 12:04:00,
2013-02-22 07:09:00,25.3,21.0,29.94,North,360,2.6,5.4,77,0.00,,,0.00,Rainwise IP-100,2013-02-22 12:09:00,
2013-02-22 07:14:00,25.3,21.0,29.95,NNW,337,0.0,4.7,77,0.00,,,0.00,Rainwise IP-100,2013-02-22 12:14:00,
2013-02-22 07:19:00,25.3,21.0,29.95,NNE,22,3.5,7.0,77,0.00,,,0.00,Rainwise IP-100,2013-02-22 12:19:00,
2013-02-22 07:25:00,25.1,21.0,29.95,NNW,337,2.3,6.8,77,0.00,,,0.00,Rainwise IP-100,2013-02-22 12:25:00,
2013-02-22 07:30:00,25.0,21.0,29.95,NNW,337,2.6,6.5,77,0.00,,,0.00,Rainwise IP-100,2013-02-22 12:30:00,
2013-02-22 07:35:00,25.0,21.0,29.95,North,360,3.3,4.9,77,0.00,,,0.00,Rainwise IP-100,2013-02-22 12:35:00,
2013-02-22 07:40:00,24.8,21.0,29.96,NNW,337,2.3,4.2,77,0.00,,,0.00,Rainwise IP-100,2013-02-22 12:40:00,
2013-02-22 07:45:00,24.7,21.0,29.96,NNE,22,2.8,4.9,78,0.00,,,0.00,Rainwise IP-100,2013-02-22 12:45:00,
2013-02-22 07:50:00,24.7,21.0,29.96,NE,45,2.3,3.7,78,0.00,,,0.00,Rainwise IP-100,2013-02-22 12:50:00,
2013-02-22 07:55:00,24.5,21.0,29.95,NNE,22,2.3,4.0,78,0.00,,,0.00,Rainwise IP-100,2013-02-22 12:55:00,
2013-02-22 08:00:00,24.5,21.0,29.96,NNE,22,1.2,4.7,78,0.00,,,0.00,Rainwise IP-100,2013-02-22 13:00:00,
2013-02-22 08:05:00,24.6,21.0,29.96,NNE,22,2.6,4.2,78,0.00,,,0.00,Rainwise IP-100,2013-02-22 13:05:00,
2013-02-22 08:10:00,24.7,21.0,29.96,NNE,22,1.6,3.7,78,0.00,,,0.00,Rainwise IP-100,2013-02-22 13:10:00,
2013-02-22 08:15:00,25.3,21.0,29.96,North,360,2.6,5.1,77,0.00,,,0.00,Rainwise IP-100,2013-02-22 13:15:00,
2013-02-22 08:20:00,26.2,21.0,29.96,North,360,3.7,4.2,79,0.00,,,0.00,Rainwise IP-100,2013-02-22 13:20:00,
2013-02-22 08:25:00,26.6,23.0,29.96,ENE,67,1.4,5.4,79,0.00,,,0.00,Rainwise IP-100,2013-02-22 13:25:00,
2013-02-22 08:30:00,26.9,23.0,29.96,ENE,67,0.0,1.9,82,0.00,,,0.00,Rainwise IP-100,2013-02-22 13:30:00,
2013-02-22 08:35:00,28.1,24.0,29.97,ENE,67,1.2,2.1,88,0.00,,,0.00,Rainwise IP-100,2013-02-22 13:35:00,
2013-02-22 08:41:00,29.4,28.0,29.97,ENE,67,0.0,2.3,91,0.00,,,0.00,Rainwise IP-100,2013-02-22 13:41:00,
2013-02-22 08:46:00,29.0,28.0,29.97,ENE,67,2.8,4.2,91,0.00,,,0.00,Rainwise IP-100,2013-02-22 13:46:00,
2013-02-22 08:51:00,27.4,24.0,29.97,ENE,67,4.7,5.1,86,0.00,,,0.00,Rainwise IP-100,2013-02-22 13:51:00,
2013-02-22 08:56:00,26.9,23.0,29.96,ENE,67,0.0,6.1,81,0.00,,,0.00,Rainwise IP-100,2013-02-22 13:56:00,
2013-02-22 09:01:00,27.8,23.0,29.97,NNE,22,5.6,9.1,79,0.00,,,0.00,Rainwise IP-100,2013-02-22 14:01:00,
2013-02-22 09:06:00,28.3,23.0,29.97,ENE,67,3.5,6.1,77,0.00,,,0.00,Rainwise IP-100,2013-02-22 14:06:00,
2013-02-22 09:11:00,28.4,21.0,29.97,NNE,22,1.6,6.1,75,0.00,,,0.00,Rainwise IP-100,2013-02-22 14:11:00,
2013-02-22 09:16:00,28.7,23.0,29.97,ENE,67,3.3,6.5,74,0.00,,,0.00,Rainwise IP-100,2013-02-22 14:16:00,
2013-02-22 09:21:00,28.8,23.0,29.96,ENE,67,6.1,7.2,73,0.00,,,0.00,Rainwise IP-100,2013-02-22 14:21:00,
2013-02-22 09:26:00,28.6,23.0,29.96,NNE,22,3.7,7.5,73,0.00,,,0.00,Rainwise IP-100,2013-02-22 14:26:00,
2013-02-22 09:31:00,28.2,21.0,29.96,ENE,67,6.1,9.1,71,0.00,,,0.00,Rainwise IP-100,2013-02-22 14:31:00,
2013-02-22 09:36:00,28.2,21.0,29.96,ENE,67,4.4,7.2,71,0.00,,,0.00,Rainwise IP-100,2013-02-22 14:36:00,
2013-02-22 09:41:00,28.2,21.0,29.95,NE,45,4.4,6.5,70,0.00,,,0.00,Rainwise IP-100,2013-02-22 14:41:00,
2013-02-22 09:46:00,28.6,21.0,29.95,NE,45,5.1,7.2,70,0.00,,,0.00,Rainwise IP-100,2013-02-22 14:46:00,
2013-02-22 09:51:00,28.8,21.0,29.96,ENE,67,3.0,6.3,69,0.00,,,0.00,Rainwise IP-100,2013-02-22 14:51:00,
2013-02-22 09:57:00,29.1,21.0,29.96,East,90,3.3,4.9,69,0.00,,,0.00,Rainwise IP-100,2013-02-22 14:57:00,
2013-02-22 10:02:00,29.7,23.0,29.95,ENE,67,2.8,4.9,70,0.00,,,0.00,Rainwise IP-100,2013-02-22 15:02:00,
2013-02-22 10:07:00,30.7,23.0,29.96,NNW,337,2.1,3.7,72,0.00,,,0.00,Rainwise IP-100,2013-02-22 15:07:00,
2013-02-22 10:12:00,32.2,24.0,29.95,ESE,112,2.1,3.5,74,0.00,,,0.00,Rainwise IP-100,2013-02-22 15:12:00,
2013-02-22 10:17:00,33.5,28.0,29.95,NW,315,0.0,3.3,75,0.06,,,0.01,Rainwise IP-100,2013-02-22 15:17:00,
2013-02-22 10:22:00,32.8,26.0,29.95,NNE,22,1.9,5.4,73,0.06,,,0.01,Rainwise IP-100,2013-02-22 15:22:00,
2013-02-22 10:27:00,31.7,24.0,29.95,ENE,67,1.2,4.9,71,0.00,,,0.01,Rainwise IP-100,2013-02-22 15:27:00,
2013-02-22 10:32:00,32.1,24.0,29.95,NE,45,5.1,6.5,70,0.00,,,0.01,Rainwise IP-100,2013-02-22 15:32:00,
2013-02-22 10:37:00,31.9,23.0,29.94,East,90,0.0,5.4,67,0.00,,,0.01,Rainwise IP-100,2013-02-22 15:37:00,
2013-02-22 10:42:00,31.7,23.0,29.94,NE,45,5.1,5.4,65,0.00,,,0.01,Rainwise IP-100,2013-02-22 15:42:00,
2013-02-22 10:47:00,31.9,23.0,29.94,NNE,22,0.0,6.1,64,0.06,,,0.02,Rainwise IP-100,2013-02-22 15:47:00,
2013-02-22 10:52:00,32.5,23.0,29.94,ENE,67,4.2,6.1,64,0.06,,,0.02,Rainwise IP-100,2013-02-22 15:52:00,
2013-02-22 10:57:00,32.6,23.0,29.93,ENE,67,2.1,9.6,63,0.00,,,0.02,Rainwise IP-100,2013-02-22 15:57:00,
2013-02-22 11:02:00,32.1,21.0,29.93,ENE,67,6.1,8.4,62,0.00,,,0.02,Rainwise IP-100,2013-02-22 16:02:00,
2013-02-22 11:07:00,31.9,21.0,29.93,ENE,67,5.6,8.2,61,0.00,,,0.02,Rainwise IP-100,2013-02-22 16:07:00,
2013-02-22 11:13:00,31.6,21.0,29.92,ENE,67,4.0,7.5,61,0.00,,,0.02,Rainwise IP-100,2013-02-22 16:13:00,
2013-02-22 11:18:00,31.8,21.0,29.92,NE,45,7.5,7.7,61,0.00,,,0.02,Rainwise IP-100,2013-02-22 16:18:00,
2013-02-22 11:23:00,31.7,21.0,29.92,ENE,67,5.1,9.8,60,0.00,,,0.02,Rainwise IP-100,2013-02-22 16:23:00,
2013-02-22 11:28:00,31.8,21.0,29.92,NE,45,1.6,8.6,60,0.00,,,0.02,Rainwise IP-100,2013-02-22 16:28:00,
2013-02-22 11:33:00,31.8,21.0,29.92,ENE,67,4.4,8.6,60,0.00,,,0.02,Rainwise IP-100,2013-02-22 16:33:00,
2013-02-22 11:38:00,31.8,21.0,29.92,NE,45,2.1,7.7,60,0.00,,,0.02,Rainwise IP-100,2013-02-22 16:38:00,
2013-02-22 11:43:00,32.2,21.0,29.92,ENE,67,2.3,6.8,60,0.00,,,0.02,Rainwise IP-100,2013-02-22 16:43:00,
2013-02-22 11:48:00,32.9,21.0,29.92,ENE,67,6.5,7.7,60,0.00,,,0.02,Rainwise IP-100,2013-02-22 16:48:00,
2013-02-22 11:53:00,33.2,21.0,29.92,NNE,22,1.6,7.0,59,0.00,,,0.02,Rainwise IP-100,2013-02-22 16:53:00,
2013-02-22 11:58:00,33.7,23.0,29.91,ENE,67,7.5,10.7,59,0.00,,,0.02,Rainwise IP-100,2013-02-22 16:58:00,
2013-02-22 12:03:00,33.4,21.0,29.91,ENE,67,5.1,10.7,59,0.00,,,0.02,Rainwise IP-100,2013-02-22 17:03:00,
2013-02-22 12:08:00,32.8,21.0,29.91,NE,45,3.0,5.8,59,0.00,,,0.02,Rainwise IP-100,2013-02-22 17:08:00,
2013-02-22 12:13:00,33.4,21.0,29.91,NE,45,4.2,7.2,59,0.00,,,0.02,Rainwise IP-100,2013-02-22 17:13:00,
2013-02-22 12:18:00,33.9,23.0,29.91,East,90,1.6,5.6,60,0.00,,,0.02,Rainwise IP-100,2013-02-22 17:18:00,
2013-02-22 12:23:00,34.6,23.0,29.90,North,360,7.9,9.6,60,0.06,,,0.03,Rainwise IP-100,2013-02-22 17:23:00,
2013-02-22 12:29:00,34.5,23.0,29.91,ENE,67,2.8,8.6,58,0.06,,,0.03,Rainwise IP-100,2013-02-22 17:29:00,
2013-02-22 12:34:00,34.2,21.0,29.90,ENE,67,4.7,4.7,56,0.00,,,0.03,Rainwise IP-100,2013-02-22 17:34:00,
2013-02-22 12:39:00,33.7,21.0,29.90,ENE,67,4.2,8.9,55,0.00,,,0.03,Rainwise IP-100,2013-02-22 17:39:00,
2013-02-22 12:44:00,33.8,21.0,29.90,ENE,67,4.9,6.3,55,0.00,,,0.03,Rainwise IP-100,2013-02-22 17:44:00,
2013-02-22 12:49:00,34.8,21.0,29.90,NE,45,0.0,5.8,55,0.00,,,0.03,Rainwise IP-100,2013-02-22 17:49:00,
2013-02-22 12:54:00,35.3,21.0,29.90,SE,135,1.9,4.2,55,0.00,,,0.03,Rainwise IP-100,2013-02-22 17:54:00,
2013-02-22 12:59:00,36.0,23.0,29.90,SE,135,1.6,3.3,55,0.00,,,0.03,Rainwise IP-100,2013-02-22 17:59:00,
2013-02-22 13:04:00,36.0,23.0,29.90,NE,45,7.2,8.2,55,0.00,,,0.03,Rainwise IP-100,2013-02-22 18:04:00,
2013-02-22 13:09:00,35.5,21.0,29.90,NNW,337,1.6,7.2,54,0.00,,,0.03,Rainwise IP-100,2013-02-22 18:09:00,
2013-02-22 13:14:00,36.3,21.0,29.90,WSW,247,1.9,3.7,54,0.00,,,0.03,Rainwise IP-100,2013-02-22 18:14:00,
2013-02-22 13:19:00,37.1,23.0,29.89,WSW,247,0.0,3.3,54,0.00,,,0.03,Rainwise IP-100,2013-02-22 18:19:00,
2013-02-22 13:24:00,36.6,23.0,29.90,NE,45,5.8,8.2,54,0.00,,,0.03,Rainwise IP-100,2013-02-22 18:24:00,
2013-02-22 13:29:00,35.4,21.0,29.89,ENE,67,2.3,6.8,53,0.00,,,0.03,Rainwise IP-100,2013-02-22 18:29:00,
2013-02-22 13:34:00,35.3,18.0,29.89,NNE,22,2.3,4.2,52,0.00,,,0.04,Rainwise IP-100,2013-02-22 18:34:00,
2013-02-22 13:39:00,36.2,21.0,29.88,ENE,67,4.4,6.1,51,0.06,,,0.04,Rainwise IP-100,2013-02-22 18:39:00,
2013-02-22 13:45:00,35.5,21.0,29.88,ENE,67,2.3,5.1,51,0.06,,,0.04,Rainwise IP-100,2013-02-22 18:45:00,
2013-02-22 13:50:00,35.1,18.0,29.88,ENE,67,1.4,6.3,51,0.00,,,0.04,Rainwise IP-100,2013-02-22 18:50:00,
2013-02-22 13:55:00,35.7,21.0,29.88,NNE,22,4.7,4.7,51,0.00,,,0.04,Rainwise IP-100,2013-02-22 18:55:00,
2013-02-22 14:00:00,35.8,21.0,29.87,North,360,3.5,5.6,51,0.00,,,0.04,Rainwise IP-100,2013-02-22 19:00:00,
2013-02-22 14:05:00,36.1,21.0,29.87,WNW,292,0.0,5.4,51,0.00,,,0.04,Rainwise IP-100,2013-02-22 19:05:00,
2013-02-22 14:10:00,36.4,21.0,29.87,NNE,22,3.5,4.2,51,0.00,,,0.04,Rainwise IP-100,2013-02-22 19:10:00,
2013-02-22 14:15:00,35.8,21.0,29.87,ENE,67,2.8,4.4,51,0.00,,,0.04,Rainwise IP-100,2013-02-22 19:15:00,
2013-02-22 14:20:00,35.4,18.0,29.87,ENE,67,5.1,6.1,51,0.00,,,0.04,Rainwise IP-100,2013-02-22 19:20:00,
2013-02-22 14:26:00,35.5,21.0,29.87,NNE,22,1.2,6.3,51,0.00,,,0.04,Rainwise IP-100,2013-02-22 19:26:00,
2013-02-22 14:31:00,35.6,21.0,29.87,East,90,1.4,5.8,51,0.00,,,0.04,Rainwise IP-100,2013-02-22 19:31:00,
2013-02-22 14:36:00,35.9,21.0,29.88,SSE,157,1.6,2.8,50,0.00,,,0.04,Rainwise IP-100,2013-02-22 19:36:00,
2013-02-22 14:41:00,36.3,18.0,29.88,SSE,157,0.0,2.3,49,0.00,,,0.04,Rainwise IP-100,2013-02-22 19:41:00,
2013-02-22 14:46:00,36.7,21.0,29.88,SSE,157,0.0,1.4,49,0.00,,,0.04,Rainwise IP-100,2013-02-22 19:46:00,
2013-02-22 14:51:00,37.1,21.0,29.88,NNE,22,2.6,2.6,49,0.00,,,0.04,Rainwise IP-100,2013-02-22 19:51:00,
2013-02-22 14:56:00,36.6,21.0,29.87,ENE,67,2.6,4.7,49,0.00,,,0.04,Rainwise IP-100,2013-02-22 19:56:00,
2013-02-22 15:01:00,35.7,21.0,29.87,ENE,67,2.1,4.0,50,0.00,,,0.04,Rainwise IP-100,2013-02-22 20:01:00,
2013-02-22 15:06:00,35.5,21.0,29.87,ENE,67,3.3,3.5,50,0.00,,,0.04,Rainwise IP-100,2013-02-22 20:06:00,
2013-02-22 15:11:00,35.6,21.0,29.88,ENE,67,0.0,3.3,51,0.00,,,0.04,Rainwise IP-100,2013-02-22 20:11:00,
2013-02-22 15:16:00,36.1,21.0,29.88,South,180,2.3,4.0,50,0.00,,,0.04,Rainwise IP-100,2013-02-22 20:16:00,
2013-02-22 15:21:00,36.9,21.0,29.88,SSW,202,0.0,3.0,50,0.00,,,0.04,Rainwise IP-100,2013-02-22 20:21:00,
2013-02-22 15:26:00,37.4,21.0,29.88,NNW,337,0.0,2.1,50,0.00,,,0.04,Rainwise IP-100,2013-02-22 20:26:00,
2013-02-22 15:31:00,37.7,23.0,29.88,NE,45,2.3,3.5,50,0.00,,,0.04,Rainwise IP-100,2013-02-22 20:31:00,
2013-02-22 15:36:00,37.1,21.0,29.87,NE,45,1.6,4.2,50,0.00,,,0.04,Rainwise IP-100,2013-02-22 20:36:00,
2013-02-22 15:42:00,36.1,21.0,29.87,NNE,22,1.6,3.7,50,0.00,,,0.04,Rainwise IP-100,2013-02-22 20:42:00,
2013-02-22 15:47:00,35.9,21.0,29.86,NE,45,4.0,5.4,51,0.00,,,0.04,Rainwise IP-100,2013-02-22 20:47:00,
2013-02-22 15:52:00,35.8,21.0,29.86,NE,45,2.6,5.6,51,0.00,,,0.04,Rainwise IP-100,2013-02-22 20:52:00,
2013-02-22 15:57:00,35.7,21.0,29.86,North,360,1.4,4.0,51,0.00,,,0.04,Rainwise IP-100,2013-02-22 20:57:00,
2013-02-22 16:02:00,36.0,21.0,29.85,North,360,1.6,2.6,51,0.00,,,0.04,Rainwise IP-100,2013-02-22 21:02:00,
2013-02-22 16:07:00,36.2,21.0,29.85,North,360,0.0,1.9,51,0.00,,,0.04,Rainwise IP-100,2013-02-22 21:07:00,
2013-02-22 16:12:00,36.1,21.0,29.84,NE,45,4.0,4.4,50,0.00,,,0.04,Rainwise IP-100,2013-02-22 21:12:00,
2013-02-22 16:17:00,35.8,21.0,29.84,NE,45,0.0,4.4,51,0.00,,,0.04,Rainwise IP-100,2013-02-22 21:17:00,
2013-02-22 16:22:00,35.6,21.0,29.85,NE,45,0.0,1.6,51,0.00,,,0.04,Rainwise IP-100,2013-02-22 21:22:00,
2013-02-22 16:27:00,35.7,21.0,29.85,NE,45,0.0,1.9,51,0.00,,,0.04,Rainwise IP-100,2013-02-22 21:27:00,
2013-02-22 16:32:00,35.7,21.0,29.85,North,360,0.0,3.5,52,0.00,,,0.04,Rainwise IP-100,2013-02-22 21:32:00,
2013-02-22 16:37:00,35.6,21.0,29.84,NE,45,1.9,2.8,52,0.00,,,0.04,Rainwise IP-100,2013-02-22 21:37:00,
2013-02-22 16:42:00,35.6,21.0,29.84,NE,45,0.0,2.3,52,0.00,,,0.04,Rainwise IP-100,2013-02-22 21:42:00,
2013-02-22 16:47:00,35.6,21.0,29.84,NE,45,0.0,1.4,52,0.00,,,0.04,Rainwise IP-100,2013-02-22 21:47:00,
2013-02-22 16:52:00,35.6,21.0,29.84,NE,45,0.0,0.0,52,0.00,,,0.04,Rainwise IP-100,2013-02-22 21:52:00,
2013-02-22 16:58:00,35.4,18.0,29.84,NE,45,0.0,0.0,52,0.00,,,0.04,Rainwise IP-100,2013-02-22 21:58:00,
2013-02-22 17:03:00,35.2,18.0,29.85,NE,45,0.0,0.0,52,0.00,,,0.04,Rainwise IP-100,2013-02-22 22:03:00,
2013-02-22 17:08:00,34.9,21.0,29.84,NE,45,0.0,0.0,53,0.00,,,0.04,Rainwise IP-100,2013-02-22 22:08:00,
2013-02-22 17:13:00,34.7,21.0,29.84,NE,45,0.0,0.0,54,0.00,,,0.04,Rainwise IP-100,2013-02-22 22:13:00,
2013-02-22 17:18:00,34.2,21.0,29.84,NE,45,0.0,1.2,55,0.00,,,0.04,Rainwise IP-100,2013-02-22 22:18:00,
2013-02-22 17:23:00,33.7,21.0,29.84,NE,45,0.0,0.0,56,0.00,,,0.04,Rainwise IP-100,2013-02-22 22:23:00,
2013-02-22 17:28:00,33.5,21.0,29.84,NE,45,0.0,0.0,56,0.00,,,0.04,Rainwise IP-100,2013-02-22 22:28:00,
2013-02-22 17:33:00,33.3,21.0,29.84,NE,45,0.0,0.0,58,0.00,,,0.04,Rainwise IP-100,2013-02-22 22:33:00,
2013-02-22 17:38:00,33.0,21.0,29.84,NE,45,0.0,0.0,59,0.00,,,0.04,Rainwise IP-100,2013-02-22 22:38:00,
2013-02-22 17:43:00,32.7,21.0,29.84,NE,45,0.0,0.0,60,0.00,,,0.04,Rainwise IP-100,2013-02-22 22:43:00,
2013-02-22 17:48:00,32.4,21.0,29.84,NE,45,0.0,0.0,62,0.00,,,0.04,Rainwise IP-100,2013-02-22 22:48:00,
2013-02-22 17:53:00,32.0,23.0,29.84,NE,45,0.0,0.0,64,0.00,,,0.04,Rainwise IP-100,2013-02-22 22:53:00,
2013-02-22 17:58:00,31.8,23.0,29.84,NE,45,0.0,0.0,66,0.00,,,0.04,Rainwise IP-100,2013-02-22 22:58:00,
2013-02-22 18:03:00,31.5,23.0,29.84,NE,45,0.0,0.0,68,0.00,,,0.04,Rainwise IP-100,2013-02-22 23:03:00,
2013-02-22 18:08:00,31.4,23.0,29.84,NE,45,0.0,0.0,68,0.00,,,0.04,Rainwise IP-100,2013-02-22 23:08:00,
2013-02-22 18:14:00,31.3,21.0,29.84,NE,45,0.0,0.0,67,0.00,,,0.04,Rainwise IP-100,2013-02-22 23:14:00,
2013-02-22 18:19:00,31.2,21.0,29.84,NE,45,0.0,0.0,67,0.00,,,0.04,Rainwise IP-100,2013-02-22 23:19:00,
2013-02-22 18:24:00,31.1,23.0,29.84,NE,45,0.0,0.0,68,0.00,,,0.04,Rainwise IP-100,2013-02-22 23:24:00,
2013-02-22 18:29:00,31.0,23.0,29.85,NE,45,0.0,0.0,68,0.00,,,0.04,Rainwise IP-100,2013-02-22 23:29:00,
2013-02-22 18:34:00,30.9,23.0,29.86,NE,45,0.0,0.0,68,0.00,,,0.04,Rainwise IP-100,2013-02-22 23:34:00,
2013-02-22 18:39:00,30.7,23.0,29.85,NE,45,0.0,0.0,68,0.00,,,0.04,Rainwise IP-100,2013-02-22 23:39:00,
2013-02-22 18:44:00,30.5,23.0,29.86,NE,45,0.0,0.0,69,0.00,,,0.04,Rainwise IP-100,2013-02-22 23:44:00,
2013-02-22 18:49:00,30.4,23.0,29.85,NE,45,0.0,2.8,68,0.00,,,0.04,Rainwise IP-100,2013-02-22 23:49:00,
2013-02-22 18:54:00,30.2,23.0,29.85,NNE,22,0.0,1.4,69,0.00,,,0.04,Rainwise IP-100,2013-02-22 23:54:00,
2013-02-22 18:59:00,30.1,23.0,29.86,NNE,22,0.0,1.2,70,0.00,,,0.04,Rainwise IP-100,2013-02-22 23:59:00,
2013-02-22 19:04:00,30.1,23.0,29.85,NNE,22,0.0,0.0,70,0.00,,,0.04,Rainwise IP-100,2013-02-23 00:04:00,
2013-02-22 19:09:00,30.0,23.0,29.84,NNE,22,0.0,1.2,70,0.00,,,0.04,Rainwise IP-100,2013-02-23 00:09:00,
2013-02-22 19:14:00,29.8,23.0,29.85,WNW,292,1.2,1.4,70,0.00,,,0.04,Rainwise IP-100,2013-02-23 00:14:00,
2013-02-22 19:19:00,29.7,23.0,29.84,NW,315,0.0,2.8,70,0.00,,,0.04,Rainwise IP-100,2013-02-23 00:19:00,
2013-02-22 19:24:00,29.7,23.0,29.85,NW,315,0.0,1.2,71,0.00,,,0.04,Rainwise IP-100,2013-02-23 00:24:00,
2013-02-22 19:30:00,29.8,23.0,29.85,NW,315,0.0,0.0,71,0.00,,,0.04,Rainwise IP-100,2013-02-23 00:30:00,
2013-02-22 19:35:00,29.7,23.0,29.85,NW,315,0.0,0.0,72,0.00,,,0.04,Rainwise IP-100,2013-02-23 00:35:00,
2013-02-22 19:40:00,29.5,23.0,29.85,NW,315,0.0,0.0,72,0.00,,,0.04,Rainwise IP-100,2013-02-23 00:40:00,
2013-02-22 19:45:00,29.5,23.0,29.85,NW,315,0.0,0.0,72,0.00,,,0.04,Rainwise IP-100,2013-02-23 00:45:00,
2013-02-22 19:50:00,29.4,23.0,29.85,NW,315,0.0,0.0,73,0.00,,,0.04,Rainwise IP-100,2013-02-23 00:50:00,
2013-02-22 19:55:00,29.3,23.0,29.84,NW,315,0.0,0.0,73,0.00,,,0.04,Rainwise IP-100,2013-02-23 00:55:00,
2013-02-22 20:00:00,29.3,23.0,29.85,NW,315,0.0,0.0,74,0.00,,,0.04,Rainwise IP-100,2013-02-23 01:00:00,
2013-02-22 20:05:00,29.4,23.0,29.84,NW,315,0.0,1.4,74,0.00,,,0.04,Rainwise IP-100,2013-02-23 01:05:00,
2013-02-22 20:10:00,29.4,23.0,29.84,NW,315,0.0,0.0,74,0.00,,,0.04,Rainwise IP-100,2013-02-23 01:10:00,
2013-02-22 20:15:00,29.2,23.0,29.84,NW,315,0.0,0.0,75,0.00,,,0.04,Rainwise IP-100,2013-02-23 01:15:00,
2013-02-22 20:20:00,29.1,23.0,29.84,NW,315,1.4,2.6,75,0.00,,,0.04,Rainwise IP-100,2013-02-23 01:20:00,
2013-02-22 20:25:00,29.2,23.0,29.84,NW,315,0.0,2.1,75,0.00,,,0.04,Rainwise IP-100,2013-02-23 01:25:00,
2013-02-22 20:30:00,29.2,23.0,29.84,NW,315,0.0,0.0,75,0.00,,,0.04,Rainwise IP-100,2013-02-23 01:30:00,
2013-02-22 20:35:00,29.2,23.0,29.84,NW,315,0.0,0.0,76,0.00,,,0.04,Rainwise IP-100,2013-02-23 01:35:00,
2013-02-22 20:41:00,29.2,23.0,29.84,NW,315,0.0,0.0,76,0.00,,,0.04,Rainwise IP-100,2013-02-23 01:41:00,
2013-02-22 20:46:00,29.3,23.0,29.84,NW,315,0.0,0.0,76,0.00,,,0.04,Rainwise IP-100,2013-02-23 01:46:00,
2013-02-22 20:51:00,29.2,23.0,29.85,NW,315,0.0,0.0,76,0.00,,,0.04,Rainwise IP-100,2013-02-23 01:51:00,
2013-02-22 20:56:00,29.2,23.0,29.84,NW,315,0.0,0.0,76,0.00,,,0.04,Rainwise IP-100,2013-02-23 01:56:00,
2013-02-22 21:01:00,29.2,23.0,29.85,NW,315,0.0,0.0,76,0.00,,,0.04,Rainwise IP-100,2013-02-23 02:01:00,
2013-02-22 21:06:00,29.2,23.0,29.85,NW,315,0.0,0.0,77,0.00,,,0.04,Rainwise IP-100,2013-02-23 02:06:00,
2013-02-22 21:11:00,29.2,23.0,29.84,NW,315,0.0,0.0,76,0.00,,,0.04,Rainwise IP-100,2013-02-23 02:11:00,
2013-02-22 21:16:00,29.2,23.0,29.84,NW,315,0.0,0.0,76,0.00,,,0.04,Rainwise IP-100,2013-02-23 02:16:00,
2013-02-22 21:21:00,29.2,23.0,29.84,NW,315,0.0,0.0,76,0.00,,,0.04,Rainwise IP-100,2013-02-23 02:21:00,
2013-02-22 21:26:00,29.2,23.0,29.83,NW,315,0.0,0.0,76,0.00,,,0.04,Rainwise IP-100,2013-02-23 02:26:00,
2013-02-22 21:31:00,29.2,23.0,29.83,NW,315,0.0,0.0,76,0.00,,,0.04,Rainwise IP-100,2013-02-23 02:31:00,
2013-02-22 21:36:00,29.2,23.0,29.84,NW,315,0.0,0.0,77,0.00,,,0.04,Rainwise IP-100,2013-02-23 02:36:00,
2013-02-22 21:41:00,29.2,23.0,29.84,NW,315,0.0,0.0,77,0.00,,,0.04,Rainwise IP-100,2013-02-23 02:41:00,
2013-02-22 21:46:00,29.2,23.0,29.84,NW,315,0.0,0.0,77,0.00,,,0.04,Rainwise IP-100,2013-02-23 02:46:00,
2013-02-22 21:51:00,29.2,23.0,29.84,NW,315,0.0,0.0,77,0.00,,,0.04,Rainwise IP-100,2013-02-23 02:51:00,
2013-02-22 21:57:00,29.2,23.0,29.84,NW,315,0.0,0.0,77,0.00,,,0.04,Rainwise IP-100,2013-02-23 02:57:00,
2013-02-22 22:02:00,29.2,23.0,29.84,NW,315,0.0,0.0,77,0.00,,,0.04,Rainwise IP-100,2013-02-23 03:02:00,
2013-02-22 22:07:00,29.2,23.0,29.84,NW,315,0.0,0.0,78,0.00,,,0.04,Rainwise IP-100,2013-02-23 03:07:00,
2013-02-22 22:12:00,29.1,23.0,29.84,NW,315,0.0,0.0,78,0.00,,,0.04,Rainwise IP-100,2013-02-23 03:12:00,
2013-02-22 22:17:00,29.1,23.0,29.84,NW,315,0.0,0.0,78,0.00,,,0.04,Rainwise IP-100,2013-02-23 03:17:00,
2013-02-22 22:22:00,29.1,23.0,29.84,NW,315,0.0,0.0,78,0.00,,,0.04,Rainwise IP-100,2013-02-23 03:22:00,
2013-02-22 22:27:00,29.1,23.0,29.84,NW,315,1.4,2.1,78,0.00,,,0.04,Rainwise IP-100,2013-02-23 03:27:00,
2013-02-22 22:32:00,29.1,23.0,29.84,NW,315,0.0,1.9,78,0.00,,,0.04,Rainwise IP-100,2013-02-23 03:32:00,
2013-02-22 22:37:00,29.1,23.0,29.84,NW,315,0.0,0.0,78,0.00,,,0.04,Rainwise IP-100,2013-02-23 03:37:00,
2013-02-22 22:42:00,29.2,23.0,29.84,NW,315,0.0,0.0,78,0.00,,,0.04,Rainwise IP-100,2013-02-23 03:42:00,
2013-02-22 22:47:00,29.2,24.0,29.84,NW,315,0.0,0.0,79,0.00,,,0.04,Rainwise IP-100,2013-02-23 03:47:00,
2013-02-22 22:52:00,29.2,24.0,29.84,NW,315,0.0,0.0,79,0.00,,,0.04,Rainwise IP-100,2013-02-23 03:52:00,
2013-02-22 22:57:00,29.0,24.0,29.84,NW,315,0.0,0.0,79,0.00,,,0.04,Rainwise IP-100,2013-02-23 03:57:00,
2013-02-22 23:02:00,28.9,24.0,29.84,NW,315,0.0,0.0,79,0.00,,,0.04,Rainwise IP-100,2013-02-23 04:02:00,
2013-02-22 23:07:00,28.8,24.0,29.84,NW,315,0.0,0.0,79,0.00,,,0.04,Rainwise IP-100,2013-02-23 04:07:00,
2013-02-22 23:13:00,28.7,24.0,29.84,NW,315,0.0,1.2,80,0.00,,,0.04,Rainwise IP-100,2013-02-23 04:13:00,
2013-02-22 23:18:00,28.6,24.0,29.83,NW,315,0.0,1.4,79,0.00,,,0.04,Rainwise IP-100,2013-02-23 04:18:00,
2013-02-22 23:23:00,28.5,24.0,29.83,NW,315,0.0,0.0,80,0.00,,,0.04,Rainwise IP-100,2013-02-23 04:23:00,
2013-02-22 23:28:00,28.5,24.0,29.83,NW,315,0.0,0.0,80,0.00,,,0.04,Rainwise IP-100,2013-02-23 04:28:00,
2013-02-22 23:33:00,28.4,23.0,29.83,NW,315,0.0,0.0,80,0.00,,,0.04,Rainwise IP-100,2013-02-23 04:33:00,
2013-02-22 23:38:00,28.3,23.0,29.83,NW,315,0.0,0.0,80,0.00,,,0.04,Rainwise IP-100,2013-02-23 04:38:00,
2013-02-22 23:43:00,28.2,23.0,29.83,NW,315,1.4,1.4,81,0.00,,,0.04,Rainwise IP-100,2013-02-23 04:43:00,
2013-02-22 23:48:00,28.1,23.0,29.83,NW,315,0.0,1.6,81,0.00,,,0.04,Rainwise IP-100,2013-02-23 04:48:00,
2013-02-22 23:53:00,27.9,23.0,29.83,NW,315,0.0,0.0,81,0.00,,,0.04,Rainwise IP-100,2013-02-23 04:53:00,
2013-02-22 23:58:00,28.0,23.0,29.83,NW,315,0.0,1.6,81,0.00,,,0.04,Rainwise IP-100,2013-02-23 04:58:00,